• In Hungary
  • List of Countries
  • For 7 days
  • Water Temperature
  • Satellite Maps
  • Weather Map
  • News
  • Weather Widgets
  • user-avatar
    Login

    Hourly Weather Barisal

    Today, 20 November, Monday

    Time Temperature Precipitation Wind Pressure Humidity
    00:00 +26°C° 0 mm 2 mps 758 mmHg 78%
    01:00 +25°C° 0 mm 2 mps 758 mmHg 78%
    02:00 +25°C° 0 mm 2 mps 758 mmHg 78%
    03:00 +25°C° 0 mm 2 mps 758 mmHg 79%
    04:00 +24°C° 0 mm 2 mps 758 mmHg 79%
    05:00 +24°C° 0 mm 2 mps 758 mmHg 79%
    06:00 +24°C° 0 mm 2 mps 758 mmHg 80%
    07:00 +26°C° 0 mm 2 mps 759 mmHg 75%
    08:00 +27°C° 0 mm 2 mps 759 mmHg 70%
    09:00 +29°C° 0 mm 3 mps 760 mmHg 65%
    10:00 +30°C° 0 mm 3 mps 759 mmHg 60%
    11:00 +32°C° 0 mm 4 mps 759 mmHg 55%
    12:00 +33°C° 0 mm 3 mps 759 mmHg 48%
    13:00 +33°C° 0 mm 4 mps 758 mmHg 48%
    14:00 +33°C° 0 mm 4 mps 757 mmHg 48%
    15:00 +33°C° 0 mm 4 mps 757 mmHg 48%
    16:00 +32°C° 0 mm 4 mps 757 mmHg 52%
    17:00 +29°C° 0 mm 3 mps 757 mmHg 56%
    18:00 +27°C° 0 mm 3 mps 757 mmHg 60%
    19:00 +27°C° 0 mm 3 mps 757 mmHg 62%
    20:00 +26°C° 0 mm 2 mps 758 mmHg 63%
    21:00 +26°C° 0 mm 2 mps 758 mmHg 64%
    22:00 +25°C° 0 mm 2 mps 758 mmHg 66%
    23:00 +25°C° 0 mm 2 mps 758 mmHg 68%

    Tomorrow, 21 November, Tuesday

    Time Temperature Precipitation Wind Pressure Humidity
    00:00 +25°C° 0 mm 2 mps 758 mmHg 69%
    01:00 +24°C° 0 mm 2 mps 758 mmHg 71%
    02:00 +24°C° 0 mm 2 mps 757 mmHg 72%
    03:00 +24°C° 0 mm 2 mps 757 mmHg 73%
    04:00 +24°C° 0 mm 2 mps 757 mmHg 74%
    05:00 +22°C° 0 mm 3 mps 758 mmHg 74%
    06:00 +22°C° 0 mm 3 mps 758 mmHg 75%
    07:00 +25°C° 0 mm 3 mps 758 mmHg 70%
    08:00 +26°C° 0 mm 4 mps 759 mmHg 65%
    09:00 +28°C° 0 mm 4 mps 760 mmHg 60%
    10:00 +29°C° 0 mm 4 mps 759 mmHg 56%
    11:00 +30°C° 0 mm 5 mps 759 mmHg 51%
    12:00 +33°C° 0 mm 5 mps 759 mmHg 47%
    13:00 +33°C° 0 mm 5 mps 758 mmHg 46%
    14:00 +33°C° 0 mm 5 mps 757 mmHg 45%
    15:00 +33°C° 0 mm 5 mps 757 mmHg 45%
    16:00 +30°C° 0 mm 4 mps 757 mmHg 47%
    17:00 +28°C° 0 mm 4 mps 757 mmHg 50%
    18:00 +26°C° 0 mm 3 mps 757 mmHg 53%
    19:00 +25°C° 0 mm 4 mps 757 mmHg 51%
    20:00 +25°C° 0 mm 4 mps 758 mmHg 50%
    21:00 +23°C° 0 mm 4 mps 758 mmHg 49%
    22:00 +22°C° 0 mm 4 mps 758 mmHg 48%
    23:00 +22°C° 0 mm 4 mps 758 mmHg 47%

    Day after tomorrow, 22 November, Wednesday

    Time Temperature Precipitation Wind Pressure Humidity
    00:00 +21°C° 0 mm 4 mps 758 mmHg 46%
    01:00 +20°C° 0 mm 4 mps 758 mmHg 46%
    02:00 +20°C° 0 mm 4 mps 757 mmHg 46%
    03:00 +20°C° 0 mm 4 mps 757 mmHg 46%
    04:00 +19°C° 0 mm 4 mps 757 mmHg 45%
    05:00 +19°C° 0 mm 4 mps 757 mmHg 45%
    06:00 +18°C° 0 mm 4 mps 757 mmHg 45%
    07:00 +20°C° 0 mm 3 mps 758 mmHg 45%
    08:00 +22°C° 0 mm 3 mps 759 mmHg 44%
    09:00 +25°C° 0 mm 3 mps 759 mmHg 44%
    10:00 +26°C° 0 mm 3 mps 759 mmHg 40%
    11:00 +27°C° 0 mm 3 mps 758 mmHg 35%
    12:00 +28°C° 0 mm 3 mps 758 mmHg 31%
    13:00 +28°C° 0 mm 3 mps 757 mmHg 31%
    14:00 +29°C° 0 mm 3 mps 756 mmHg 32%
    15:00 +29°C° 0 mm 3 mps 756 mmHg 32%
    16:00 +27°C° 0 mm 3 mps 756 mmHg 36%
    17:00 +25°C° 0 mm 3 mps 756 mmHg 40%
    18:00 +22°C° 0 mm 3 mps 756 mmHg 43%
    19:00 +21°C° 0 mm 2 mps 757 mmHg 45%
    20:00 +20°C° 0 mm 2 mps 757 mmHg 47%
    21:00 +20°C° 0 mm 2 mps 758 mmHg 48%
    22:00 +19°C° 0 mm 3 mps 758 mmHg 50%
    23:00 +19°C° 0 mm 3 mps 758 mmHg 52%

    23 November, Thursday

    Time Temperature Precipitation Wind Pressure Humidity
    00:00 +19°C° 0 mm 3 mps 757 mmHg 53%
    01:00 +18°C° 0 mm 3 mps 757 mmHg 56%
    02:00 +18°C° 0 mm 3 mps 757 mmHg 58%
    03:00 +18°C° 0 mm 3 mps 757 mmHg 60%
    04:00 +18°C° 0 mm 3 mps 757 mmHg 62%
    05:00 +18°C° 0 mm 3 mps 757 mmHg 63%
    06:00 +18°C° 0 mm 3 mps 757 mmHg 64%
    07:00 +20°C° 0 mm 3 mps 758 mmHg 62%
    08:00 +22°C° 0 mm 3 mps 759 mmHg 61%
    09:00 +24°C° 0 mm 3 mps 759 mmHg 59%
    10:00 +26°C° 0 mm 3 mps 759 mmHg 56%
    11:00 +27°C° 0 mm 3 mps 758 mmHg 53%
    12:00 +28°C° 0 mm 2 mps 758 mmHg 49%
    13:00 +29°C° 0 mm 3 mps 757 mmHg 48%
    14:00 +29°C° 0 mm 3 mps 757 mmHg 47%
    15:00 +29°C° 0 mm 3 mps 756 mmHg 46%
    16:00 +27°C° 0 mm 2 mps 756 mmHg 50%
    17:00 +26°C° 0 mm 2 mps 756 mmHg 55%
    18:00 +24°C° 0 mm 2 mps 756 mmHg 59%
    19:00 +23°C° 0 mm 2 mps 757 mmHg 61%
    20:00 +23°C° 0 mm 2 mps 758 mmHg 62%
    21:00 +21°C° 0 mm 2 mps 758 mmHg 64%
    22:00 +21°C° 0 mm 2 mps 758 mmHg 65%
    23:00 +20°C° 0 mm 2 mps 758 mmHg 66%

    24 November, Friday

    Time Temperature Precipitation Wind Pressure Humidity
    00:00 +20°C° 0 mm 2 mps 758 mmHg 67%
    01:00 +20°C° 0 mm 2 mps 758 mmHg 69%
    02:00 +19°C° 0 mm 2 mps 757 mmHg 71%
    03:00 +19°C° 0 mm 2 mps 757 mmHg 73%
    04:00 +19°C° 0 mm 2 mps 758 mmHg 75%
    05:00 +19°C° 0 mm 2 mps 758 mmHg 77%
    06:00 +19°C° 0 mm 2 mps 758 mmHg 80%
    07:00 +20°C° 0 mm 2 mps 759 mmHg 74%
    08:00 +23°C° 0 mm 2 mps 759 mmHg 69%
    09:00 +25°C° 0 mm 2 mps 760 mmHg 64%
    10:00 +26°C° 0 mm 2 mps 759 mmHg 58%
    11:00 +27°C° 0 mm 2 mps 759 mmHg 53%
    12:00 +29°C° 0 mm 2 mps 759 mmHg 47%
    13:00 +29°C° 0 mm 2 mps 758 mmHg 46%
    14:00 +29°C° 0 mm 2 mps 758 mmHg 45%
    15:00 +29°C° 0 mm 2 mps 757 mmHg 43%
    16:00 +28°C° 0 mm 2 mps 757 mmHg 48%
    17:00 +26°C° 0 mm 2 mps 757 mmHg 52%
    18:00 +24°C° 0 mm 2 mps 758 mmHg 57%
    19:00 +23°C° 0 mm 2 mps 758 mmHg 58%
    20:00 +23°C° 0 mm 2 mps 758 mmHg 59%
    21:00 +21°C° 0 mm 2 mps 759 mmHg 59%
    22:00 +21°C° 0 mm 2 mps 759 mmHg 60%
    23:00 +20°C° 0 mm 2 mps 759 mmHg 61%

    25 November, Saturday

    Time Temperature Precipitation Wind Pressure Humidity
    00:00 +20°C° 0 mm 2 mps 759 mmHg 61%
    01:00 +20°C° 0 mm 2 mps 759 mmHg 63%
    02:00 +19°C° 0 mm 2 mps 758 mmHg 65%
    03:00 +19°C° 0 mm 2 mps 758 mmHg 67%
    04:00 +19°C° 0 mm 2 mps 759 mmHg 69%
    05:00 +19°C° 0 mm 2 mps 759 mmHg 72%
    06:00 +19°C° 0 mm 2 mps 759 mmHg 74%
    07:00 +20°C° 0 mm 2 mps 760 mmHg 70%
    08:00 +23°C° 0 mm 2 mps 760 mmHg 66%
    09:00 +25°C° 0 mm 3 mps 761 mmHg 62%
    10:00 +26°C° 0 mm 2 mps 760 mmHg 56%
    11:00 +28°C° 0 mm 2 mps 760 mmHg 51%
    12:00 +29°C° 0 mm 2 mps 760 mmHg 45%
    13:00 +29°C° 0 mm 2 mps 759 mmHg 44%
    14:00 +29°C° 0 mm 2 mps 758 mmHg 43%
    15:00 +30°C° 0 mm 2 mps 758 mmHg 42%
    16:00 +28°C° 0 mm 2 mps 758 mmHg 46%
    17:00 +26°C° 0 mm 2 mps 758 mmHg 51%
    18:00 +24°C° 0 mm 2 mps 759 mmHg 55%
    19:00 +24°C° 0 mm 2 mps 759 mmHg 56%
    20:00 +23°C° 0 mm 2 mps 759 mmHg 57%
    21:00 +21°C° 0 mm 2 mps 760 mmHg 58%
    22:00 +21°C° 0 mm 2 mps 760 mmHg 59%
    23:00 +21°C° 0 mm 2 mps 760 mmHg 61%
    Show more